Weather History for St. Thomas, VI

Change the Weather History Date:

Monday, January 27, 2014

  Actual Average Record
Temperature  
Mean Temperature 80 °F 79 °F  
Max Temperature 85 °F 85 °F 91 °F (1994)
Min Temperature 75 °F 72 °F 68 °F (1986)
Degree Days  
Heating Degree Days 0 0  
Month to date heating degree days 0 0  
Since 1 July heating degree days 0 0  
Cooling Degree Days 15 14  
Month to date cooling degree days 363 378  
Year to date cooling degree days 363 378  
Growing Degree Days 30 (Base 50)    
Moisture  
Dew Point 69 °F    
Average Humidity 71    
Maximum Humidity 82    
Minimum Humidity 59    
Precipitation  
Precipitation 0.00 in 0.06 in 1.63 in (1995)
Month to date precipitation 0.92 2.13  
Year to date precipitation 0.92 2.13  
Sea Level Pressure  
Sea Level Pressure 30.03 in    
Wind  
Wind Speed 13 mph (ESE)    
Max Wind Speed 24 mph    
Max Gust Speed 31 mph    
Visibility 10 miles    
Events      
T = Trace of Precipitation, MM = Missing Value Source: NWS Daily Summary

Daily Weather History Graph

Daily Weather History Graph

Search for Another Location

Airport:

Trip Planner

Search our weather history database for the weather conditions in past years. The results will help you decide how hot, cold, wet, or windy it might be!

Date:

Astronomy

Jan. 27, 2014 Rise Set
Actual Time 6:54 AM AST 6:11 PM AST
Civil Twilight 6:31 AM AST 6:34 PM AST
Nautical Twilight 6:04 AM AST 7:00 PM AST
Astronomical Twilight 5:38 AM AST 7:26 PM AST
Moon 3:25 AM AST (1/27) 2:58 PM AST (1/27)
Length of Visible Light 12h 02m
Length of Day
11h 17m
Waning Crescent, 15% of the Moon is Illuminated
Jan 27
Waning Crescent
Jan 30
New
Feb 6
First Quarter
Feb 14
Full
Feb 22
Last Quarter

Hourly Weather History & Observations

Time (AST) Temp. Heat Index Dew Point Humidity Pressure Visibility Wind Dir Wind Speed Gust Speed Precip Events Conditions
12:53 AM 77.0 °F - 68.0 °F 74% 30.04 in 10.0 mi East 11.5 mph - N/A   Clear
1:53 AM 75.9 °F - 69.1 °F 79% 30.03 in 10.0 mi East 6.9 mph - N/A   Clear
2:53 AM 75.0 °F - 68.0 °F 79% 30.01 in 10.0 mi East 6.9 mph - N/A   Clear
3:53 AM 75.0 °F - 69.1 °F 82% 30.00 in 10.0 mi East 6.9 mph - N/A   Clear
4:53 AM 75.0 °F - 68.0 °F 79% 29.99 in 10.0 mi East 6.9 mph - N/A   Clear
5:53 AM 75.9 °F - 69.1 °F 79% 30.01 in 10.0 mi East 8.1 mph - N/A   Clear
6:53 AM 75.9 °F - 68.0 °F 76% 30.02 in 10.0 mi ESE 11.5 mph - N/A   Clear
7:53 AM 78.1 °F - 68.0 °F 71% 30.04 in 10.0 mi ESE 12.7 mph - N/A   Clear
8:53 AM 81.0 °F 83.8 °F 68.0 °F 65% 30.06 in 10.0 mi ESE 17.3 mph 25.3 mph N/A   Clear
9:53 AM 82.9 °F 85.8 °F 68.0 °F 60% 30.08 in 10.0 mi ESE 13.8 mph 26.5 mph N/A   Clear
10:53 AM 84.9 °F 88.2 °F 68.0 °F 57% 30.07 in 10.0 mi ESE 13.8 mph 23.0 mph N/A   Mostly Cloudy
11:53 AM 84.0 °F 87.0 °F 68.0 °F 58% 30.06 in 10.0 mi SE 19.6 mph 27.6 mph N/A   Partly Cloudy
12:53 PM 82.0 °F 85.9 °F 70.0 °F 67% 30.04 in 10.0 mi SE 20.7 mph 26.5 mph N/A   Scattered Clouds
1:53 PM 84.0 °F 87.8 °F 69.1 °F 61% 30.01 in 10.0 mi SE 16.1 mph 25.3 mph N/A   Clear
2:53 PM 82.9 °F 87.0 °F 70.0 °F 65% 29.99 in 10.0 mi SE 15.0 mph - N/A   Partly Cloudy
3:53 PM 82.0 °F 85.5 °F 69.1 °F 65% 29.98 in 10.0 mi SE 18.4 mph 23.0 mph N/A   Partly Cloudy
4:53 PM 81.0 °F 84.4 °F 70.0 °F 69% 30.00 in 10.0 mi SE 16.1 mph 25.3 mph N/A   Partly Cloudy
5:53 PM 80.1 °F 82.9 °F 69.1 °F 69% 30.01 in 10.0 mi SE 16.1 mph 24.2 mph N/A   Scattered Clouds
6:53 PM 79.0 °F - 70.0 °F 74% 30.02 in 10.0 mi ESE 12.7 mph - N/A   Mostly Cloudy
7:53 PM 79.0 °F - 70.0 °F 74% 30.04 in 10.0 mi ESE 11.5 mph - N/A   Partly Cloudy
8:35 PM 78.8 °F - 69.8 °F 74% 30.05 in 10.0 mi ESE 12.7 mph - N/A   Mostly Cloudy
8:53 PM 78.1 °F - 70.0 °F 76% 30.06 in 10.0 mi ESE 10.4 mph - N/A   Overcast
9:53 PM 78.1 °F - 70.0 °F 76% 30.07 in 10.0 mi ESE 10.4 mph - N/A   Overcast
10:53 PM 79.0 °F - 70.0 °F 74% 30.07 in 10.0 mi ESE 13.8 mph 20.7 mph N/A   Mostly Cloudy
11:53 PM 78.1 °F - 68.0 °F 71% 30.06 in 10.0 mi ESE 12.7 mph - N/A   Mostly Cloudy